Retour au catalogue

STARLINK-35262

ActifCommunicationsVLEO
NORAD 65847·PAYLOAD·🇺🇸 United States

Lancé Sep 29, 2025 depuis Vandenberg Space Force Base

Loading…

Prochains Passages (prochaines 24 heures)

TLE

FraisSource: CelesTrak SupGP

Époque: Sep 14, 2026, 23:11 UTC

1 65847C 25221AA  26257.96645833  .00052230  00000+0  15434-2 0  2575
2 65847  53.1573 287.5365 0001188  92.5206 338.4426 15.34359837    13

Suivez STARLINK-35262 en temps réel avec AllMySat

Download on the App Store